TimeEDT,TemperatureF,Dew PointF,Humidity,Sea Level PressureIn,VisibilityMPH,Wind Direction,Wind SpeedMPH,Gust SpeedMPH,PrecipitationIn,Events,Conditions,WindDirDegrees,DateUTC
12:10 AM,55.4,55.4,100,29.94,2.5,North,3.5,-,0.01,Rain,Light Rain,360,2011-10-03 04:10:00
12:36 AM,55.4,55.4,100,29.95,3.0,North,3.5,-,0.02,Rain,Light Rain,10,2011-10-03 04:36:00
12:54 AM,55.0,55.0,100,29.96,3.0,North,3.5,-,0.02,Rain,Light Rain,10,2011-10-03 04:54:00
1:39 AM,55.4,55.4,100,29.96,2.5,Calm,Calm,-,0.01,,Overcast,0,2011-10-03 05:39:00
1:54 AM,55.9,55.0,97,29.96,2.0,Calm,Calm,-,0.01,,Overcast,0,2011-10-03 05:54:00
2:07 AM,55.4,55.4,100,29.96,2.0,Calm,Calm,-,0.01,,Overcast,0,2011-10-03 06:07:00
2:37 AM,55.4,55.4,100,29.96,3.0,NNE,3.5,-,0.02,,Overcast,20,2011-10-03 06:37:00
2:54 AM,55.0,55.0,100,29.97,4.0,Calm,Calm,-,0.02,,Overcast,0,2011-10-03 06:54:00
3:30 AM,55.4,55.4,100,29.97,7.0,Calm,Calm,-,N/A,,Overcast,0,2011-10-03 07:30:00
3:54 AM,55.0,55.0,100,29.99,4.0,Calm,Calm,-,0.01,Rain,Light Rain,0,2011-10-03 07:54:00
4:54 AM,55.0,54.0,96,30.00,10.0,North,4.6,-,0.00,,Overcast,10,2011-10-03 08:54:00
5:54 AM,55.0,53.1,93,30.02,10.0,Calm,Calm,-,N/A,,Overcast,0,2011-10-03 09:54:00
6:08 AM,55.4,53.6,94,30.02,10.0,NNE,3.5,-,N/A,,Overcast,20,2011-10-03 10:08:00
6:36 AM,53.6,53.6,100,30.03,3.0,Calm,Calm,-,N/A,,Overcast,0,2011-10-03 10:36:00
6:54 AM,54.0,54.0,100,30.05,6.0,Calm,Calm,-,N/A,,Overcast,0,2011-10-03 10:54:00
7:11 AM,53.6,53.6,100,30.04,10.0,Calm,Calm,-,N/A,,Overcast,0,2011-10-03 11:11:00
7:28 AM,55.4,53.6,94,30.04,10.0,NE,3.5,-,N/A,,Overcast,50,2011-10-03 11:28:00
7:38 AM,55.4,53.6,94,30.05,10.0,ENE,3.5,-,N/A,,Overcast,70,2011-10-03 11:38:00
7:54 AM,55.0,54.0,96,30.06,10.0,NNE,4.6,-,N/A,,Overcast,30,2011-10-03 11:54:00
8:54 AM,57.0,55.0,93,30.05,10.0,NNW,4.6,-,N/A,,Overcast,340,2011-10-03 12:54:00
9:34 AM,57.2,55.4,94,30.07,10.0,ESE,3.5,-,N/A,,Overcast,120,2011-10-03 13:34:00
9:49 AM,55.4,53.6,94,30.08,10.0,SE,5.8,-,N/A,,Overcast,140,2011-10-03 13:49:00
9:54 AM,55.9,54.0,93,30.09,10.0,SE,4.6,-,N/A,,Overcast,130,2011-10-03 13:54:00
10:38 AM,57.2,53.6,88,30.08,10.0,ESE,5.8,-,N/A,,Overcast,120,2011-10-03 14:38:00
10:54 AM,59.0,55.0,87,30.09,10.0,ESE,5.8,-,N/A,,Overcast,110,2011-10-03 14:54:00
11:32 AM,59.0,53.6,82,30.09,10.0,Calm,Calm,-,N/A,,Overcast,0,2011-10-03 15:32:00
11:54 AM,59.0,54.0,83,30.09,10.0,Calm,Calm,-,N/A,,Overcast,0,2011-10-03 15:54:00
12:17 PM,60.8,53.6,77,30.09,10.0,Calm,Calm,-,N/A,,Overcast,0,2011-10-03 16:17:00
12:54 PM,61.0,54.0,78,30.08,10.0,NNE,3.5,-,N/A,,Overcast,30,2011-10-03 16:54:00
2:54 PM,62.1,55.0,78,30.07,10.0,Calm,Calm,-,N/A,,Overcast,0,2011-10-03 18:54:00
3:54 PM,62.1,54.0,75,30.06,10.0,Calm,Calm,-,N/A,,Overcast,0,2011-10-03 19:54:00
4:54 PM,61.0,54.0,78,30.06,10.0,Variable,3.5,-,N/A,,Partly Cloudy,0,2011-10-03 20:54:00
6:54 PM,57.0,54.0,89,30.08,10.0,Calm,Calm,-,N/A,,Partly Cloudy,0,2011-10-03 22:54:00
7:54 PM,57.0,55.0,93,30.11,10.0,ESE,3.5,-,N/A,,Overcast,120,2011-10-03 23:54:00
8:54 PM,57.0,55.0,93,30.09,10.0,ESE,3.5,-,N/A,,Overcast,110,2011-10-04 00:54:00
9:54 PM,55.9,55.0,97,30.12,10.0,SE,3.5,-,0.00,,Overcast,140,2011-10-04 01:54:00
10:41 PM,55.4,55.4,100,30.09,10.0,Calm,Calm,-,0.01,,Overcast,0,2011-10-04 02:41:00
10:52 PM,55.4,53.6,94,30.09,9.0,Calm,Calm,-,0.01,,Overcast,0,2011-10-04 02:52:00
10:54 PM,55.0,54.0,96,30.09,8.0,Calm,Calm,-,0.01,,Overcast,0,2011-10-04 02:54:00
11:18 PM,53.6,53.6,100,30.09,2.5,Calm,Calm,-,N/A,,Overcast,0,2011-10-04 03:18:00
11:23 PM,53.6,53.6,100,30.09,6.0,Calm,Calm,-,N/A,,Overcast,0,2011-10-04 03:23:00
11:26 PM,53.6,53.6,100,30.09,7.0,Calm,Calm,-,N/A,,Overcast,0,2011-10-04 03:26:00
11:54 PM,54.0,53.1,97,30.09,6.0,Calm,Calm,-,N/A,,Mostly Cloudy,0,2011-10-04 03:54:00